Location: Ailly
(50.0793°N, 1.9944°E)
Time: 23:16:15
(UTC+00:00)

Cosmos 921 Rocket - Pass Details

Date: 15 January 2026
Orbit: 564 x 620 km, 75.8° (Epoch: 16 February)

Event Time Altitude Azimuth Distance (km) Brightness Sun altitude
Rises 06:27:39 0° 224° (SW) 2,832 6.2 -12.0°
Reaches altitude 10° 06:30:03 10° 234° (SW) 1,925 5.3 -11.6°
Maximum altitude 06:33:56 33° 299° (WNW) 995 3.6 -11.0°
Drops below altitude 10° 06:37:48 10° 5° (N) 1,906 5.4 -10.5°
Sets 06:40:11 0° 15° (NNE) 2,800 6.4 -10.1°
